COSMOS 2251 DEB, 34614

Orbit data source: Space-Track

COSMOS 2251 DEB, 34614 is space debris in LEO originally from a launch on Wed, 16 Jun 1993 UTC launched from the Plesetsk Missile And Space Complex (PKMTR). The debris from Iridium 33, an American commercial communications satellite, has been tracked extensively since its accidental collision with the defunct Russian satellite Cosmos 2251 in 2009. This event, occurring at high speed in low Earth orbit (LEO), generated thousands of pieces of space debris, significantly increasing the risk of further collisions. The Iridium 33 debris cloud has impacted space traffic management and orbital debris mitigation strategies, making it a subject of ongoing study in space situational awareness.

Loading next visibility...
Identifier
34614, 1993-036WK
Orbit
LEO
Country
Flag of CISCIS
Related business
Manufacturer
Unknown
Mission
Spacecraft
Bus & Motor
Unknown
Mass
Unknown
Launch date (UTC)
1993-06-16 (32 years ago)
Launch vehicle
Unknown
Launch site
Plesetsk Missile And Space Complex (PKMTR)
Object type
Payload
Rocket body
Debris
Shape & HBR
Unknown shape, 1.1 m
Radar Cross Section
Small (<0.1 m²)

Expand to show TLE details & history
Last TLE update: 1 day ago

TLE from 1 day ago
0 COSMOS 2251 DEB
1 34614U 93036WK  25290.57146130  .00015812  00000-0  65908-2 0  9991
2 34614  73.8782  84.8334 0200740  92.5473  25.3403 14.15963719839719
Epoch: 2025-10-17T13:42Z
TLE epoch observation values (Epoch: 2025-10-17T13:42:54.256Z)
Latitude
57.36321°
Longitude
6.11925°
Altitude
717.89 km
Speed
7.57 km/s
True Right ascension
15h 52m 38s
True Declination
57° 12' 21"
Sunlit
Object was in daylight at epoch
Visualization orbit readout
Latitude
Unknown
Longitude
Unknown
Altitude
Unknown
Speed
Unknown
Apparent Right ascension
Unknown
Apparent Declination
Unknown
Sunlit
N/A
Visualization observer readout
Local Sidereal Time
09:07:33
Azimuth
Unknown
Elevation
Unknown
Doppler factor
Unknown
Orbital elements
Apogee altitude
981.524 km
Perigee altitude
691.863 km
Semi-major axis
7,214.831 km
Eccentricity
0.02007
Inclination
73.8782°
RAAN
84.8334°
Arg. of periapsis
92.5473°
True anomaly
26.34759°
Mean anomaly
25.3403°
Eccentric anomaly
25.84164°
Mean motion
3.54164 °/min
Orbital period
101.65 mins
BSTAR
0.0065908

Documentation

Showing up to 5 results
|